Weather History for KCNI - October, 2012

Change the Weather History Date:

Thursday, October 4, 2012

  Actual Average (KGVL) Record (KGVL)
Temperature  
Mean Temperature 66 °F 65 °F  
Max Temperature 78 °F 75 °F 96 °F (1954)
Min Temperature 53 °F 56 °F 36 °F (1974)
Degree Days  
Heating Degree Days 0 2  
Month to date heating degree days 8  
Since 1 July heating degree days 21  
Cooling Degree Days 0 2  
Month to date cooling degree days 11  
Year to date cooling degree days 1552  
Growing Degree Days 16 (Base 50)    
Moisture  
Dew Point 50 °F    
Average Humidity 66    
Maximum Humidity 88    
Minimum Humidity 28    
Precipitation  
Precipitation 0.00 in 0.18 in 2.10 in (1937)
Month to date precipitation 0.71  
Year to date precipitation 41.64  
Sea Level Pressure  
Sea Level Pressure 30.26 in    
Wind  
Wind Speed 1 mph ()    
Max Wind Speed 8 mph    
Max Gust Speed -    
Visibility 7.1 miles    
Events      
T = Trace of Precipitation, MM = Missing Value Source: Averaged Metar Reports

Daily Weather History Graph

Daily Weather History Graph

Search for Another Location

Airport or City:

Trip Planner

Search our weather history database for the weather conditions in past years. The results will help you decide how hot, cold, wet, or windy it might be!

Date:

Astronomy

Oct. 04, 2012 Rise Set
Actual Time 7:34 AM EDT 7:17 PM EDT
Civil Twilight 7:09 AM EDT 7:42 PM EDT
Nautical Twilight 6:40 AM EDT 8:11 PM EDT
Astronomical Twilight 6:11 AM EDT 8:40 PM EDT
Moon 10:03 PM EDT (10/4) 11:39 AM EDT (10/4)
Length of Visible Light 12h 32m
Length of Day
11h 42m
Waning Gibbous, 82% of the Moon is Illuminated
Oct 4
Waning Gibbous
Oct 8
Last Quarter
Oct 15
New
Oct 21
First Quarter
Oct 29
Full

Hourly Weather History & Observations

Time (EDT) Temp. Dew Point Humidity Pressure Visibility Wind Dir Wind Speed Gust Speed Precip Events Conditions
12:15 AM 59.0 °F 53.6 °F 82% 30.23 in 5.0 mi Calm Calm - N/A   Clear
12:35 AM 55.4 °F 51.8 °F 88% 30.23 in 1.5 mi Calm Calm - N/A   Mist
12:55 AM 55.4 °F 51.8 °F 88% 30.23 in 2.5 mi Calm Calm - N/A   Haze
1:15 AM 55.4 °F 51.8 °F 88% 30.23 in 4.0 mi Calm Calm - N/A   Clear
1:35 AM 55.4 °F 51.8 °F 88% 30.24 in 1.2 mi Calm Calm - N/A   Mist
1:55 AM 55.4 °F 51.8 °F 88% 30.23 in 3.0 mi Calm Calm - N/A   Clear
2:15 AM 55.4 °F 51.8 °F 88% 30.23 in 3.0 mi Calm Calm - N/A   Clear
2:35 AM 55.4 °F 51.8 °F 88% 30.24 in 4.0 mi Calm Calm - N/A   Clear
2:55 AM 55.4 °F 51.8 °F 88% 30.24 in 3.0 mi Calm Calm - N/A   Clear
3:15 AM 55.4 °F 51.8 °F 88% 30.24 in 4.0 mi Calm Calm - N/A   Clear
3:35 AM 55.4 °F 51.8 °F 88% 30.23 in 4.0 mi North 3.5 mph - N/A   Clear
3:55 AM 55.4 °F 51.8 °F 88% 30.23 in 4.0 mi Calm Calm - N/A   Haze
4:15 AM 55.4 °F 51.8 °F 88% 30.24 in 4.0 mi Calm Calm - N/A   Clear
4:35 AM 55.4 °F 51.8 °F 88% 30.23 in 3.0 mi Calm Calm - N/A   Clear
4:55 AM 55.4 °F 51.8 °F 88% 30.24 in 4.0 mi Calm Calm - N/A   Clear
5:15 AM 53.6 °F 50.0 °F 88% 30.25 in 3.0 mi Calm Calm - N/A   Clear
5:35 AM 53.6 °F 50.0 °F 88% 30.25 in 3.0 mi Calm Calm - N/A   Clear
5:55 AM 53.6 °F 50.0 °F 88% 30.26 in 3.0 mi Calm Calm - N/A   Clear
6:15 AM 53.6 °F 50.0 °F 88% 30.26 in 3.0 mi Calm Calm - N/A   Clear
6:35 AM 53.6 °F 50.0 °F 88% 30.27 in 3.0 mi Calm Calm - N/A   Clear
6:55 AM 53.6 °F 50.0 °F 88% 30.27 in 3.0 mi Calm Calm - N/A   Clear
7:15 AM 53.6 °F 50.0 °F 88% 30.27 in 4.0 mi Calm Calm - N/A   Clear
7:35 AM 53.6 °F 50.0 °F 88% 30.27 in 3.0 mi Calm Calm - N/A   Clear
7:55 AM 53.6 °F 50.0 °F 88% 30.28 in 2.0 mi Calm Calm - N/A   Clear
8:15 AM 53.6 °F 50.0 °F 88% 30.28 in 2.0 mi Calm Calm - N/A   Clear
8:35 AM 53.6 °F 50.0 °F 88% 30.28 in 2.0 mi Calm Calm - N/A   Clear
8:55 AM 57.2 °F 53.6 °F 88% 30.29 in 5.0 mi Calm Calm - N/A   Clear
9:15 AM 59.0 °F 53.6 °F 82% 30.29 in 7.0 mi Calm Calm - N/A   Clear
9:35 AM 60.8 °F 57.2 °F 88% 30.30 in 10.0 mi Calm Calm - N/A   Clear
9:55 AM 64.4 °F 57.2 °F 77% 30.30 in 10.0 mi Calm Calm - N/A   Clear
10:15 AM 66.2 °F 53.6 °F 64% 30.31 in 10.0 mi Calm Calm - N/A   Clear
10:35 AM 68.0 °F 51.8 °F 56% 30.31 in 10.0 mi North 3.5 mph - N/A   Clear
10:55 AM 69.8 °F 51.8 °F 53% 30.31 in 10.0 mi NW 3.5 mph - N/A   Clear
11:15 AM 69.8 °F 48.2 °F 46% 30.31 in 10.0 mi NNW 4.6 mph - N/A   Clear
11:35 AM 71.6 °F 46.4 °F 41% 30.30 in 10.0 mi Calm Calm - N/A   Clear
11:55 AM 73.4 °F 46.4 °F 38% 30.30 in 10.0 mi NW 3.5 mph - N/A   Clear
12:35 PM 73.4 °F 44.6 °F 36% 30.30 in 10.0 mi NW 3.5 mph - N/A   Clear
12:55 PM 75.2 °F 42.8 °F 31% 30.29 in 10.0 mi NNW 5.8 mph - N/A   Clear
1:15 PM 75.2 °F 44.6 °F 34% 30.29 in 10.0 mi NNE 3.5 mph - N/A   Clear
1:35 PM 77.0 °F 44.6 °F 32% 30.28 in 10.0 mi North 4.6 mph - N/A   Clear
1:55 PM 77.0 °F 42.8 °F 29% 30.28 in 10.0 mi North 3.5 mph - N/A   Clear
2:15 PM 77.0 °F 44.6 °F 32% 30.27 in 10.0 mi Calm Calm - N/A   Clear
2:35 PM 78.8 °F 44.6 °F 30% 30.26 in 10.0 mi NNE 3.5 mph - N/A   Scattered Clouds
2:55 PM 78.8 °F 44.6 °F 30% 30.26 in 10.0 mi Calm Calm - N/A   Scattered Clouds
3:15 PM 77.0 °F 44.6 °F 32% 30.25 in 10.0 mi WNW 4.6 mph - N/A   Clear
3:35 PM 77.0 °F 42.8 °F 29% 30.25 in 10.0 mi NW 8.1 mph - N/A   Clear
3:55 PM 77.0 °F 41.0 °F 28% 30.25 in 10.0 mi Calm Calm - N/A   Clear
4:15 PM 77.0 °F 44.6 °F 32% 30.25 in 10.0 mi WNW 5.8 mph - N/A   Clear
4:35 PM 77.0 °F 44.6 °F 32% 30.24 in 10.0 mi West 3.5 mph - N/A   Clear
4:55 PM 77.0 °F 42.8 °F 29% 30.24 in 10.0 mi WNW 5.8 mph - N/A   Clear
5:15 PM 75.2 °F 44.6 °F 34% 30.24 in 10.0 mi West 3.5 mph - N/A   Clear
5:35 PM 73.4 °F 44.6 °F 36% 30.23 in 10.0 mi WNW 5.8 mph - N/A   Clear
6:15 PM 71.6 °F 46.4 °F 41% 30.23 in 10.0 mi WNW 3.5 mph - N/A   Clear
6:35 PM 69.8 °F 48.2 °F 46% 30.22 in 10.0 mi Calm Calm - N/A   Clear
6:55 PM 69.8 °F 50.0 °F 49% 30.23 in 10.0 mi Calm Calm - N/A   Clear
7:15 PM 68.0 °F 50.0 °F 52% 30.23 in 10.0 mi Calm Calm - N/A   Clear
7:35 PM 68.0 °F 50.0 °F 52% 30.23 in 10.0 mi Calm Calm - N/A   Clear
7:55 PM 66.2 °F 51.8 °F 60% 30.22 in 10.0 mi Calm Calm - N/A   Clear
8:15 PM 64.4 °F 53.6 °F 68% 30.23 in 10.0 mi Calm Calm - N/A   Clear
8:35 PM 62.6 °F 53.6 °F 72% 30.23 in 10.0 mi Calm Calm - N/A   Clear
8:55 PM 62.6 °F 51.8 °F 68% 30.24 in 10.0 mi Calm Calm - N/A   Clear
9:15 PM 62.6 °F 51.8 °F 68% 30.24 in 10.0 mi NNE 3.5 mph - N/A   Clear
9:35 PM 62.6 °F 51.8 °F 68% 30.24 in 10.0 mi Calm Calm - N/A   Clear
9:55 PM 60.8 °F 51.8 °F 72% 30.24 in 10.0 mi Calm Calm - N/A   Clear
10:15 PM 62.6 °F 51.8 °F 68% 30.25 in 10.0 mi Calm Calm - N/A   Clear
10:35 PM 60.8 °F 51.8 °F 72% 30.25 in 10.0 mi Calm Calm - N/A   Clear
10:55 PM 59.0 °F 53.6 °F 82% 30.26 in 7.0 mi Calm Calm - N/A   Clear
11:15 PM 59.0 °F 53.6 °F 82% 30.26 in 5.0 mi Calm Calm - N/A   Haze
11:35 PM 59.0 °F 53.6 °F 82% 30.26 in 5.0 mi Calm Calm - N/A   Haze
11:55 PM 59.0 °F 53.6 °F 82% 30.26 in 5.0 mi Calm Calm - N/A   Haze